Wooster, OH

7:55 AM EST on January 16, 2018 (GMT -0500)
Wayne County

Weather History for KBJJ - December, 2012

Change the Weather History Date:

Sunday, December 23, 2012

  Actual Average Record
Temperature  
Mean Temperature 26 °F -  
Max Temperature 35 °F 32 °F 63 °F (2015)
Min Temperature 17 °F 18 °F -4 °F (2000)
Degree Days  
Heating Degree Days 39    
Moisture  
Dew Point 20 °F    
Average Humidity 83    
Maximum Humidity 96    
Minimum Humidity 61    
Precipitation  
Precipitation 0.00 in - - ()
Sea Level Pressure  
Sea Level Pressure 30.00 in    
Wind  
Wind Speed 5 mph (West)    
Max Wind Speed 8 mph    
Max Gust Speed -    
Visibility 8 miles    
Events      
Averages and records for this station are not official NWS values.
T = Trace of Precipitation, MM = Missing Value Source: NWS Daily Summary

Daily Weather History Graph

Daily Weather History Graph

Search for Another Location

Airport or City:

Trip Planner

Search our weather history database for the weather conditions in past years. The results will help you decide how hot, cold, wet, or windy it might be!

Date:

Astronomy

Dec. 23, 2012 Rise Set
Actual Time 7:49 AM EST 5:04 PM EST
Civil Twilight 7:18 AM EST 5:35 PM EST
Nautical Twilight 6:44 AM EST 6:09 PM EST
Astronomical Twilight 6:10 AM EST 6:43 PM EST
Moon 1:54 PM EST (12/23) 3:30 AM EST (12/23)
Length of Visible Light 10h 16m
Length of Day
9h 14m
Waxing Gibbous, 81% of the Moon is Illuminated
Dec 23
Waxing Gibbous
Dec 28
Full
Jan 4
Last Quarter
Jan 11
New
Jan 18
First Quarter

Hourly Weather History & Observations

Time (EST) Temp. Windchill Dew Point Humidity Pressure Visibility Wind Dir Wind Speed Gust Speed Precip Events Conditions
12:56 AM 21.0 °F 12.4 °F 18.0 °F 88% 30.06 in 8.0 mi SSW 6.9 mph - N/A   Clear
1:56 AM 19.9 °F 12.1 °F 17.1 °F 89% 30.07 in 7.0 mi WSW 5.8 mph - N/A   Clear
2:56 AM 19.0 °F 11.1 °F 16.0 °F 88% 30.06 in 6.0 mi SSW 5.8 mph - N/A   Clear
3:56 AM 19.0 °F 13.9 °F 17.1 °F 92% 30.02 in 7.0 mi South 3.5 mph - N/A   Clear
4:56 AM 19.0 °F - 16.0 °F 88% 29.99 in 7.0 mi Calm Calm - N/A   Clear
5:56 AM 17.1 °F - 15.1 °F 92% 29.98 in 6.0 mi Calm Calm - N/A   Clear
6:56 AM 19.0 °F 12.3 °F 16.0 °F 88% 29.97 in 7.0 mi SSW 4.6 mph - N/A   Clear
7:56 AM 19.0 °F 12.3 °F 17.1 °F 92% 29.98 in 7.0 mi SSW 4.6 mph - N/A   Clear
8:56 AM 21.9 °F 13.4 °F 19.0 °F 89% 29.98 in 8.0 mi SSW 6.9 mph - N/A   Clear
9:56 AM 25.0 °F 18.1 °F 19.9 °F 81% 29.98 in 9.0 mi SW 5.8 mph - N/A   Clear
10:56 AM 28.0 °F 20.8 °F 21.0 °F 75% 29.97 in 10.0 mi SW 6.9 mph - N/A   Clear
11:56 AM 30.9 °F 24.3 °F 23.0 °F 72% 29.95 in 10.0 mi West 6.9 mph - N/A   Clear
12:56 PM 33.1 °F 26.9 °F 23.0 °F 66% 29.94 in 10.0 mi West 6.9 mph - N/A   Clear
1:56 PM 35.1 °F 30.1 °F 23.0 °F 61% 29.94 in 10.0 mi WNW 5.8 mph - N/A   Clear
2:56 PM 35.1 °F 28.6 °F 23.0 °F 61% 29.96 in 10.0 mi WNW 8.1 mph - N/A   Clear
3:56 PM 34.0 °F 29.8 °F 24.1 °F 67% 29.98 in 10.0 mi NW 4.6 mph - N/A   Clear
4:56 PM 30.9 °F 27.5 °F 23.0 °F 72% 29.98 in 10.0 mi West 3.5 mph - N/A   Clear
5:56 PM 26.1 °F 21.9 °F 21.9 °F 84% 30.00 in 9.0 mi WNW 3.5 mph - 0.00 in   Clear
6:56 PM 25.0 °F - 21.0 °F 85% 30.01 in 9.0 mi Calm Calm - N/A   Clear
7:56 PM 23.0 °F - 19.9 °F 88% 30.03 in 8.0 mi Calm Calm - N/A   Clear
8:56 PM 21.0 °F 16.2 °F 19.0 °F 92% 30.05 in 6.0 mi NNW 3.5 mph - N/A   Clear
9:56 PM 25.0 °F 18.1 °F 21.0 °F 85% 30.05 in 8.0 mi North 5.8 mph - N/A   Clear
10:22 PM 24.8 °F - 21.2 °F 86% 30.01 in 7.0 mi Calm Calm - N/A   Mostly Cloudy
10:47 PM 24.8 °F 17.9 °F 21.2 °F 86% 30.01 in 7.0 mi North 5.8 mph - N/A   Scattered Clouds
10:56 PM 24.1 °F 17.0 °F 21.9 °F 91% 30.05 in 7.0 mi NNE 5.8 mph - N/A   Partly Cloudy
11:56 PM 19.9 °F - 19.0 °F 96% 30.03 in 4.0 mi Calm Calm - N/A   Clear